Location: Rogers' Astrophysics Observatory
(34.4289°N, 82.8708°W)
Time: 01:10:53
(UTC-04:00)

Hubble Space Telescope - Visible Passes

Search period start: 20 July 2018 00:00
Search period end: 30 July 2018 00:00
Orbit: 537 x 541 km, 28.5° (Epoch: 19 July)

Date Brightness Start Highest point End Pass type
(mag) Time Alt. Az. Time Alt. Az. Time Alt. Az.
20 Jul 1.5 05:12:20 27° SW 05:13:38 34° S 05:17:24 10° ESE visible
21 Jul 1.5 05:02:44 32° SSW 05:03:15 33° S 05:06:57 10° ESE visible
22 Jul 1.7 04:53:17 30° S 04:53:17 30° S 04:56:28 10° SE visible
23 Jul 2.4 04:44:00 21° SSE 04:44:00 21° SSE 04:45:57 10° SE visible
24 Jul 3.1 04:34:54 12° SE 04:34:54 12° SE 04:35:22 10° SE visible
28 Jul 2.8 22:33:57 10° SW 22:35:06 16° SW 22:35:06 16° SW visible
29 Jul 2.2 22:23:24 10° SW 22:25:45 24° SSW 22:25:45 24° SSW visible
